Time,TemperatureF,DewpointF,PressureIn,WindDirection,WindDirectionDegrees,WindSpeedMPH,WindSpeedGustMPH,Humidity,HourlyPrecipIn,Conditions,Clouds,dailyrainin,SoftwareType,DateUTC
2013-06-21 00:01:00,62.6,61.0,30.32,SE,135,0.0,0.0,94,0.00,,,0.00,weatherlink.com 1.10,2013-06-21 04:01:00,
2013-06-21 00:16:00,62.3,61.0,30.33,SE,135,0.0,0.0,94,0.00,,,0.00,weatherlink.com 1.10,2013-06-21 04:16:00,
2013-06-21 00:31:00,62.0,61.0,30.33,SE,135,0.0,0.0,95,0.00,,,0.00,weatherlink.com 1.10,2013-06-21 04:31:00,
2013-06-21 00:46:00,61.8,60.0,30.32,SE,135,0.0,0.0,95,0.00,,,0.00,weatherlink.com 1.10,2013-06-21 04:46:00,
2013-06-21 01:01:00,61.8,61.0,30.32,SE,135,0.0,0.0,96,0.00,,,0.00,weatherlink.com 1.10,2013-06-21 05:01:00,
2013-06-21 01:16:00,62.0,61.0,30.32,SE,135,0.0,0.0,95,0.00,,,0.00,weatherlink.com 1.10,2013-06-21 05:16:00,
2013-06-21 01:31:00,62.1,61.0,30.32,SE,135,0.0,0.0,95,0.00,,,0.00,weatherlink.com 1.10,2013-06-21 05:31:00,
2013-06-21 01:46:00,61.8,60.0,30.32,SE,136,0.0,0.0,95,0.00,,,0.00,weatherlink.com 1.10,2013-06-21 05:46:00,
2013-06-21 02:01:00,61.6,61.0,30.32,SE,136,0.0,0.0,96,0.00,,,0.00,weatherlink.com 1.10,2013-06-21 06:01:00,
2013-06-21 02:16:00,61.4,60.0,30.31,SE,136,0.0,0.0,96,0.00,,,0.00,weatherlink.com 1.10,2013-06-21 06:16:00,
2013-06-21 02:31:00,61.2,60.0,30.31,SE,135,0.0,0.0,96,0.00,,,0.00,weatherlink.com 1.10,2013-06-21 06:31:00,
2013-06-21 02:46:00,60.8,60.0,30.31,SE,135,0.0,0.0,96,0.00,,,0.00,weatherlink.com 1.10,2013-06-21 06:46:00,
2013-06-21 03:01:00,60.5,59.0,30.30,SE,135,0.0,0.0,96,0.00,,,0.00,weatherlink.com 1.10,2013-06-21 07:01:00,
2013-06-21 03:16:00,60.4,59.0,30.31,SE,135,0.0,0.0,96,0.00,,,0.00,weatherlink.com 1.10,2013-06-21 07:16:00,
2013-06-21 03:31:00,60.3,60.0,30.31,SE,138,0.0,0.0,97,0.00,,,0.00,weatherlink.com 1.10,2013-06-21 07:31:00,
2013-06-21 03:46:00,60.3,60.0,30.31,SSE,148,0.0,0.0,97,0.00,,,0.00,weatherlink.com 1.10,2013-06-21 07:46:00,
2013-06-21 04:01:00,59.7,59.0,30.31,SSE,148,0.0,0.0,97,0.00,,,0.00,weatherlink.com 1.10,2013-06-21 08:01:00,
2013-06-21 04:16:00,59.6,59.0,30.31,SSE,148,0.0,0.0,97,0.00,,,0.00,weatherlink.com 1.10,2013-06-21 08:16:00,
2013-06-21 04:31:00,59.5,59.0,30.31,SSE,148,0.0,0.0,97,0.00,,,0.00,weatherlink.com 1.10,2013-06-21 08:31:00,
2013-06-21 04:46:00,59.7,59.0,30.31,SSE,148,0.0,0.0,97,0.00,,,0.00,weatherlink.com 1.10,2013-06-21 08:46:00,
2013-06-21 05:01:00,59.8,59.0,30.31,SSE,148,0.0,0.0,97,0.00,,,0.00,weatherlink.com 1.10,2013-06-21 09:01:00,
2013-06-21 05:16:00,59.7,59.0,30.32,SE,143,0.0,0.0,96,0.00,,,0.00,weatherlink.com 1.10,2013-06-21 09:16:00,
2013-06-21 05:31:00,59.5,59.0,30.32,SE,143,0.0,0.0,97,0.00,,,0.00,weatherlink.com 1.10,2013-06-21 09:31:00,
2013-06-21 05:46:00,59.2,58.0,30.33,SE,143,0.0,0.0,97,0.00,,,0.00,weatherlink.com 1.10,2013-06-21 09:46:00,
2013-06-21 06:02:00,59.0,58.0,30.33,SE,142,0.0,0.0,97,0.00,,,0.00,weatherlink.com 1.10,2013-06-21 10:02:00,
2013-06-21 06:16:00,58.8,58.0,30.33,SE,143,0.0,0.0,97,0.00,,,0.00,weatherlink.com 1.10,2013-06-21 10:16:00,
2013-06-21 06:31:00,58.8,58.0,30.33,SE,142,0.0,0.0,97,0.00,,,0.00,weatherlink.com 1.10,2013-06-21 10:31:00,
2013-06-21 06:46:00,58.5,58.0,30.34,SE,143,0.0,0.0,97,0.00,,,0.00,weatherlink.com 1.10,2013-06-21 10:46:00,
2013-06-21 07:01:00,58.6,58.0,30.34,SE,142,0.0,0.0,98,0.00,,,0.00,weatherlink.com 1.10,2013-06-21 11:01:00,
2013-06-21 07:16:00,58.9,58.0,30.34,SE,143,0.0,0.0,98,0.00,,,0.00,weatherlink.com 1.10,2013-06-21 11:16:00,
2013-06-21 07:31:00,59.3,59.0,30.35,SE,142,0.0,0.0,98,0.00,,,0.00,weatherlink.com 1.10,2013-06-21 11:31:00,
2013-06-21 07:46:00,59.7,59.0,30.34,SE,143,0.0,0.0,98,0.00,,,0.00,weatherlink.com 1.10,2013-06-21 11:46:00,
2013-06-21 08:01:00,61.4,61.0,30.35,SE,142,0.0,0.0,98,0.00,,,0.00,weatherlink.com 1.10,2013-06-21 12:01:00,
2013-06-21 08:16:00,60.8,60.0,30.35,SE,141,0.0,0.0,97,0.00,,,0.00,weatherlink.com 1.10,2013-06-21 12:16:00,
2013-06-21 08:31:00,60.7,60.0,30.36,SE,141,0.0,0.0,97,0.00,,,0.00,weatherlink.com 1.10,2013-06-21 12:31:00,
2013-06-21 08:46:00,60.9,60.0,30.36,NE,39,0.0,0.0,96,0.00,,,0.00,weatherlink.com 1.10,2013-06-21 12:46:00,
2013-06-21 09:01:00,61.1,60.0,30.36,NE,40,0.0,0.0,97,0.00,,,0.00,weatherlink.com 1.10,2013-06-21 13:01:00,
2013-06-21 09:16:00,61.3,61.0,30.36,NE,40,0.0,0.0,97,0.00,,,0.00,weatherlink.com 1.10,2013-06-21 13:16:00,
2013-06-21 09:31:00,61.8,61.0,30.36,NE,40,0.0,0.0,96,0.00,,,0.00,weatherlink.com 1.10,2013-06-21 13:31:00,
2013-06-21 09:46:00,62.3,61.0,30.36,NE,40,0.0,0.0,96,0.00,,,0.00,weatherlink.com 1.10,2013-06-21 13:46:00,
2013-06-21 10:02:00,63.3,62.0,30.36,NE,40,0.0,0.0,96,0.00,,,0.00,weatherlink.com 1.10,2013-06-21 14:02:00,
2013-06-21 10:17:00,65.0,63.0,30.36,NE,40,0.0,0.0,94,0.00,,,0.00,weatherlink.com 1.10,2013-06-21 14:17:00,
2013-06-21 10:32:00,66.0,64.0,30.36,NE,34,0.0,0.0,92,0.00,,,0.00,weatherlink.com 1.10,2013-06-21 14:32:00,
2013-06-21 10:47:00,67.4,65.0,30.36,NNW,332,0.0,0.0,90,0.00,,,0.00,weatherlink.com 1.10,2013-06-21 14:47:00,
2013-06-21 11:02:00,68.3,64.0,30.35,NNW,332,0.0,0.0,86,0.00,,,0.00,weatherlink.com 1.10,2013-06-21 15:02:00,
2013-06-21 11:17:00,68.8,62.0,30.35,NNW,331,0.0,0.0,80,0.00,,,0.00,weatherlink.com 1.10,2013-06-21 15:17:00,
2013-06-21 11:32:00,69.5,63.0,30.35,ESE,120,0.0,0.0,81,0.00,,,0.00,weatherlink.com 1.10,2013-06-21 15:32:00,
2013-06-21 11:47:00,70.2,64.0,30.35,ESE,118,0.0,0.0,81,0.00,,,0.00,weatherlink.com 1.10,2013-06-21 15:47:00,
2013-06-21 12:02:00,70.5,63.0,30.35,WNW,293,0.0,2.0,77,0.00,,,0.00,weatherlink.com 1.10,2013-06-21 16:02:00,
2013-06-21 12:17:00,71.1,65.0,30.35,NNE,33,0.0,2.0,81,0.00,,,0.00,weatherlink.com 1.10,2013-06-21 16:17:00,
2013-06-21 12:32:00,71.2,64.0,30.35,NNE,30,0.0,1.0,77,0.00,,,0.00,weatherlink.com 1.10,2013-06-21 16:32:00,
2013-06-21 12:47:00,71.3,65.0,30.34,NNE,19,0.0,1.0,79,0.00,,,0.00,weatherlink.com 1.10,2013-06-21 16:47:00,
2013-06-21 13:02:00,73.0,66.0,30.34,SSW,208,0.0,1.0,79,0.00,,,0.00,weatherlink.com 1.10,2013-06-21 17:02:00,
2013-06-21 13:47:00,71.9,65.0,30.34,WSW,238,0.0,2.0,79,0.00,,,0.00,weatherlink.com 1.10,2013-06-21 17:47:00,
2013-06-21 14:02:00,72.8,66.0,30.33,WSW,238,0.0,0.0,78,0.00,,,0.00,weatherlink.com 1.10,2013-06-21 18:02:00,
2013-06-21 14:32:00,74.0,65.0,30.32,NNE,29,1.0,1.0,74,0.00,,,0.00,weatherlink.com 1.10,2013-06-21 18:32:00,
2013-06-21 14:47:00,75.8,66.0,30.32,NNE,28,0.0,1.0,72,0.00,,,0.00,weatherlink.com 1.10,2013-06-21 18:47:00,
2013-06-21 15:02:00,76.6,65.0,30.31,NNE,25,0.0,0.0,68,0.00,,,0.00,weatherlink.com 1.10,2013-06-21 19:02:00,
2013-06-21 15:17:00,75.6,65.0,30.31,NE,37,0.0,1.0,70,0.00,,,0.00,weatherlink.com 1.10,2013-06-21 19:17:00,
2013-06-21 15:32:00,76.3,65.0,30.30,SSE,158,0.0,2.0,68,0.00,,,0.00,weatherlink.com 1.10,2013-06-21 19:32:00,
2013-06-21 15:47:00,74.0,63.0,30.30,SW,219,0.0,2.0,68,0.00,,,0.00,weatherlink.com 1.10,2013-06-21 19:47:00,
2013-06-21 16:02:00,73.0,65.0,30.29,South,191,0.0,2.0,75,0.00,,,0.00,weatherlink.com 1.10,2013-06-21 20:02:00,
2013-06-21 16:17:00,71.5,64.0,30.29,South,191,1.0,2.0,77,0.00,,,0.00,weatherlink.com 1.10,2013-06-21 20:17:00,
2013-06-21 16:32:00,70.9,63.0,30.28,South,181,0.0,1.0,76,0.00,,,0.00,weatherlink.com 1.10,2013-06-21 20:32:00,
2013-06-21 17:02:00,72.2,65.0,30.28,SSE,165,0.0,1.0,78,0.00,,,0.00,weatherlink.com 1.10,2013-06-21 21:02:00,
2013-06-21 17:18:00,72.1,66.0,30.27,SSE,165,2.0,2.0,80,0.00,,,0.00,weatherlink.com 1.10,2013-06-21 21:18:00,
2013-06-21 17:33:00,72.4,65.0,30.27,WNW,294,0.0,1.0,78,0.00,,,0.00,weatherlink.com 1.10,2013-06-21 21:33:00,
2013-06-21 17:48:00,72.1,65.0,30.27,SSW,211,0.0,2.0,77,0.00,,,0.00,weatherlink.com 1.10,2013-06-21 21:48:00,
2013-06-21 18:03:00,71.3,64.0,30.27,SE,124,0.0,3.0,78,0.00,,,0.00,weatherlink.com 1.10,2013-06-21 22:03:00,
2013-06-21 18:18:00,70.7,65.0,30.27,SSE,149,1.0,2.0,82,0.00,,,0.00,weatherlink.com 1.10,2013-06-21 22:18:00,
2013-06-21 18:33:00,70.1,65.0,30.27,SE,141,0.0,1.0,84,0.00,,,0.00,weatherlink.com 1.10,2013-06-21 22:33:00,
2013-06-21 19:03:00,69.0,63.0,30.27,SE,134,1.0,2.0,82,0.00,,,0.00,weatherlink.com 1.10,2013-06-21 23:03:00,
2013-06-21 19:18:00,68.8,63.0,30.28,SE,129,1.0,2.0,81,0.00,,,0.00,weatherlink.com 1.10,2013-06-21 23:18:00,
2013-06-21 19:33:00,68.4,63.0,30.28,SE,129,1.0,1.0,82,0.00,,,0.00,weatherlink.com 1.10,2013-06-21 23:33:00,
2013-06-21 19:48:00,67.9,62.0,30.28,SE,131,1.0,1.0,82,0.00,,,0.00,weatherlink.com 1.10,2013-06-21 23:48:00,
2013-06-21 20:03:00,67.1,62.0,30.28,SE,143,1.0,2.0,83,0.00,,,0.00,weatherlink.com 1.10,2013-06-22 00:03:00,
2013-06-21 20:18:00,66.6,62.0,30.27,SSE,153,1.0,2.0,85,0.00,,,0.00,weatherlink.com 1.10,2013-06-22 00:18:00,
2013-06-21 20:33:00,66.0,62.0,30.28,SSE,150,1.0,2.0,86,0.00,,,0.00,weatherlink.com 1.10,2013-06-22 00:33:00,
2013-06-21 21:03:00,65.7,61.0,30.28,SE,129,1.0,1.0,85,0.00,,,0.00,weatherlink.com 1.10,2013-06-22 01:03:00,
2013-06-21 21:18:00,65.2,61.0,30.28,SE,128,0.0,0.0,86,0.00,,,0.00,weatherlink.com 1.10,2013-06-22 01:18:00,
2013-06-21 21:33:00,64.6,61.0,30.28,ESE,118,0.0,0.0,88,0.00,,,0.00,weatherlink.com 1.10,2013-06-22 01:33:00,
2013-06-21 21:48:00,64.4,61.0,30.29,SE,145,1.0,2.0,89,0.00,,,0.00,weatherlink.com 1.10,2013-06-22 01:48:00,
2013-06-21 22:03:00,64.4,61.0,30.30,SE,145,0.0,0.0,89,0.00,,,0.00,weatherlink.com 1.10,2013-06-22 02:03:00,
2013-06-21 22:18:00,64.1,61.0,30.31,SE,146,0.0,0.0,88,0.00,,,0.00,weatherlink.com 1.10,2013-06-22 02:18:00,
2013-06-21 22:33:00,63.6,60.0,30.31,SSE,152,0.0,0.0,88,0.00,,,0.00,weatherlink.com 1.10,2013-06-22 02:33:00,
2013-06-21 22:48:00,63.3,60.0,30.32,SSE,154,0.0,2.0,90,0.00,,,0.00,weatherlink.com 1.10,2013-06-22 02:48:00,
2013-06-21 23:03:00,63.4,60.0,30.32,SE,146,2.0,2.0,88,0.00,,,0.00,weatherlink.com 1.10,2013-06-22 03:03:00,
2013-06-21 23:18:00,63.2,60.0,30.32,SSE,155,1.0,2.0,89,0.00,,,0.00,weatherlink.com 1.10,2013-06-22 03:18:00,
2013-06-21 23:33:00,62.8,60.0,30.32,SSE,155,1.0,2.0,89,0.00,,,0.00,weatherlink.com 1.10,2013-06-22 03:33:00,
2013-06-21 23:48:00,62.5,60.0,30.32,SSE,153,0.0,2.0,90,0.00,,,0.00,weatherlink.com 1.10,2013-06-22 03:48:00,